contact:dominique.lefevre@mio.osupytheas.fr, maurice.libes@osupytheas.fr
Project:EMSO Ligure-ouest http://www.emso-fr.org/EMSO-France
Sensor Aquadopp, line 13 Serial AQD14315 
DOI : "https://doi.org/10.17882/74513; https://doi.org/10.17882/83244" 
Title:EMSO Ligure Ouest : Data ligne ALBATROSS capteur AQUADOPP - deploiement 2021
Id,Date,Profondeur,Latitude,Longitude,X_East,Y_North,Z_Up,Amplitude_X,Amplitude_Y,Amplitude_Z,Batterie,SoundSpeed,Heading,Pitch,Roll,Pressure,Temperature,Speed,Direction
, , m, degrees North, degrees East, m.s-1, m.s-1,m.s-1, 1, 1, 1, Volt, m.s-1, degree, degree, degree, dbar, degree_C, m.s-1, degree
09,2021-11-16T21:30:00,2000.0,42.79,6.0312,-0.072,0.013,0.0,66.0,61.0,63.0,12.6,1504.6,234.1,-1.4,1.5,1990.831,13.27,0.073,280.2
09,2021-11-16T22:00:00,2000.0,42.79,6.0312,-0.079,-0.02,-0.019,66.0,65.0,66.0,12.6,1504.6,220.9,-1.4,1.6,1990.77,13.27,0.081,255.8
09,2021-11-16T22:30:00,2000.0,42.79,6.0312,-0.072,-0.023,0.001,67.0,61.0,64.0,12.6,1504.6,224.5,-1.9,1.6,1990.732,13.27,0.075,252.3
09,2021-11-16T23:00:00,2000.0,42.79,6.0312,-0.065,-0.02,0.019,67.0,64.0,67.0,12.6,1504.6,219.2,-1.1,1.7,1990.727,13.27,0.068,252.9
09,2021-11-17T00:00:00,2000.0,42.79,6.0312,-0.063,-0.012,0.024,71.0,62.0,67.0,12.6,1504.6,225.0,-2.0,1.5,1990.742,13.27,0.064,259.2
09,2021-11-17T00:30:00,2000.0,42.79,6.0312,-0.066,0.009,-0.019,66.0,62.0,65.0,12.6,1504.6,239.6,-2.4,0.9,1990.685,13.27,0.066,277.8
09,2021-11-17T01:00:00,2000.0,42.79,6.0312,-0.067,-0.007,-0.012,68.0,62.0,66.0,12.6,1504.6,228.7,-2.1,1.6,1990.733,13.27,0.067,264.0
09,2021-11-17T01:30:00,2000.0,42.79,6.0312,-0.056,-0.024,-0.024,67.0,62.0,64.0,12.6,1504.6,225.6,-2.4,1.3,1990.75,13.27,0.06,246.8
09,2021-11-17T02:00:00,2000.0,42.79,6.0312,-0.055,-0.027,0.0,67.0,64.0,63.0,12.6,1504.6,232.2,-2.0,0.9,1990.829,13.27,0.061,243.9
09,2021-11-17T02:30:00,2000.0,42.79,6.0312,-0.08,-0.016,-0.006,67.0,60.0,63.0,12.6,1504.6,237.3,-1.8,1.4,1990.855,13.27,0.081,258.7
09,2021-11-17T03:00:00,2000.0,42.79,6.0312,-0.057,-0.006,0.015,64.0,61.0,66.0,12.6,1504.6,229.8,-1.5,1.6,1990.822,13.27,0.057,264.0
09,2021-11-17T03:30:00,2000.0,42.79,6.0312,-0.054,-0.047,0.017,67.0,63.0,66.0,12.6,1504.6,225.2,-2.5,1.8,1990.865,13.27,0.071,229.0
09,2021-11-17T04:00:00,2000.0,42.79,6.0312,-0.062,-0.034,-0.005,66.0,60.0,63.0,12.6,1504.6,239.0,-2.3,1.2,1990.903,13.27,0.07,241.3
09,2021-11-17T04:30:00,2000.0,42.79,6.0312,-0.067,-0.041,0.008,62.0,60.0,63.0,12.6,1504.6,232.9,-2.2,1.8,1990.912,13.27,0.078,238.5
09,2021-11-17T05:00:00,2000.0,42.79,6.0312,-0.077,-0.035,-0.006,63.0,58.0,63.0,12.6,1504.6,235.5,-1.9,1.4,1990.953,13.27,0.084,245.6
09,2021-11-17T05:30:00,2000.0,42.79,6.0312,-0.08,-0.017,0.018,62.0,58.0,60.0,12.6,1504.6,244.3,-1.9,0.6,1990.943,13.27,0.081,258.0
09,2021-11-17T06:00:00,2000.0,42.79,6.0312,-0.088,-0.044,-0.01,64.0,59.0,61.0,12.6,1504.6,233.0,-2.2,1.2,1990.956,13.27,0.098,243.4
09,2021-11-17T06:30:00,2000.0,42.79,6.0312,-0.081,-0.01,-0.022,63.0,58.0,62.0,12.6,1504.6,244.4,-2.4,1.7,1990.972,13.27,0.081,263.0
09,2021-11-17T07:00:00,2000.0,42.79,6.0312,-0.066,-0.037,-0.027,63.0,59.0,62.0,12.6,1504.6,236.6,-2.4,1.6,1990.928,13.27,0.075,240.7
09,2021-11-17T07:30:00,2000.0,42.79,6.0312,-0.084,-0.01,-0.008,63.0,60.0,62.0,12.6,1504.6,246.5,-2.1,1.3,1990.971,13.27,0.084,263.2
09,2021-11-17T08:00:00,2000.0,42.79,6.0312,-0.102,-0.023,-0.02,65.0,59.0,63.0,12.6,1504.6,239.4,-2.0,1.2,1990.945,13.27,0.104,257.3
09,2021-11-17T08:30:00,2000.0,42.79,6.0312,-0.084,-0.016,0.01,64.0,60.0,64.0,12.5,1504.6,247.8,-1.8,0.7,1990.953,13.27,0.085,259.2
09,2021-11-17T09:00:00,2000.0,42.79,6.0312,-0.085,0.022,0.004,64.0,62.0,61.0,12.6,1504.6,262.9,-1.9,1.8,1990.956,13.27,0.087,284.5
09,2021-11-17T09:30:00,2000.0,42.79,6.0312,-0.094,-0.041,-0.005,65.0,62.0,64.0,12.6,1504.6,240.1,-2.1,2.0,1990.9,13.27,0.102,246.4
09,2021-11-17T10:00:00,2000.0,42.79,6.0312,-0.093,-0.009,0.001,64.0,61.0,64.0,12.6,1504.6,251.8,-1.9,1.1,1990.867,13.27,0.093,264.5
09,2021-11-17T10:30:00,2000.0,42.79,6.0312,-0.084,-0.022,-0.017,66.0,62.0,63.0,12.6,1504.6,250.3,-2.3,1.0,1990.843,13.27,0.086,255.3
09,2021-11-17T11:00:00,2000.0,42.79,6.0312,-0.092,0.007,-0.015,64.0,61.0,65.0,12.6,1504.6,258.0,-2.1,1.0,1990.811,13.27,0.092,274.4
09,2021-11-17T11:30:00,2000.0,42.79,6.0312,-0.104,-0.031,0.008,65.0,61.0,64.0,12.6,1504.6,239.1,-1.9,1.2,1990.804,13.27,0.108,253.4
09,2021-11-17T12:00:00,2000.0,42.79,6.0312,-0.115,-0.028,-0.002,67.0,60.0,65.0,12.6,1504.6,235.4,-1.8,1.5,1990.855,13.27,0.118,256.3
09,2021-11-17T13:00:00,2000.0,42.79,6.0312,-0.083,-0.039,-0.011,64.0,61.0,64.0,12.6,1504.6,234.2,-1.5,1.5,1990.763,13.27,0.091,244.8
09,2021-11-17T13:30:00,2000.0,42.79,6.0312,-0.056,-0.039,-0.031,67.0,62.0,64.0,12.6,1504.6,231.7,-2.1,1.4,1990.809,13.27,0.068,235.1
09,2021-11-17T14:00:00,2000.0,42.79,6.0312,-0.088,-0.023,-0.029,66.0,63.0,65.0,12.6,1504.6,236.0,-1.6,1.5,1990.821,13.27,0.09,255.4
09,2021-11-17T14:30:00,2000.0,42.79,6.0312,-0.086,-0.01,-0.028,65.0,61.0,64.0,12.6,1504.6,239.4,-1.8,1.3,1990.758,13.27,0.086,263.4
09,2021-11-17T15:00:00,2000.0,42.79,6.0312,-0.084,0.02,-0.012,65.0,62.0,66.0,12.6,1504.6,239.6,-2.1,1.4,1990.759,13.27,0.086,283.4
09,2021-11-17T15:30:00,2000.0,42.79,6.0312,-0.076,0.002,-0.035,65.0,60.0,66.0,12.6,1504.6,242.5,-2.4,1.2,1990.769,13.27,0.076,271.5
09,2021-11-17T16:00:00,2000.0,42.79,6.0312,-0.098,0.013,-0.019,65.0,60.0,65.0,12.6,1504.6,237.4,-1.8,1.4,1990.849,13.27,0.098,277.6
09,2021-11-17T16:30:00,2000.0,42.79,6.0312,-0.093,0.008,0.005,65.0,61.0,63.0,12.6,1504.6,251.5,-1.2,1.3,1990.847,13.27,0.093,274.9
09,2021-11-17T17:00:00,2000.0,42.79,6.0312,-0.079,-0.008,-0.003,64.0,61.0,65.0,12.5,1504.6,238.2,-1.8,1.3,1990.86,13.27,0.079,264.2
09,2021-11-17T17:30:00,2000.0,42.79,6.0312,-0.073,0.016,0.013,65.0,60.0,65.0,12.6,1504.6,244.5,-2.0,1.1,1990.896,13.27,0.074,282.4
09,2021-11-17T18:00:00,2000.0,42.79,6.0312,-0.063,0.007,-0.01,65.0,63.0,65.0,12.6,1504.6,246.1,-1.4,1.2,1990.891,13.27,0.063,276.3
09,2021-11-17T18:30:00,2000.0,42.79,6.0312,-0.081,0.012,0.005,64.0,60.0,65.0,12.6,1504.6,237.1,-2.0,1.6,1990.87,13.27,0.081,278.4
09,2021-11-17T19:00:00,2000.0,42.79,6.0312,-0.071,-0.006,0.009,66.0,63.0,64.0,12.6,1504.6,239.6,-1.7,1.5,1990.886,13.27,0.071,265.2
09,2021-11-17T19:30:00,2000.0,42.79,6.0312,-0.056,0.018,0.005,64.0,62.0,65.0,12.6,1504.6,246.6,-2.1,1.3,1990.937,13.27,0.058,287.8
09,2021-11-17T20:00:00,2000.0,42.79,6.0312,-0.05,-0.017,0.012,65.0,61.0,63.0,12.5,1504.6,240.0,-1.6,1.6,1990.928,13.27,0.052,251.2
09,2021-11-17T20:30:00,2000.0,42.79,6.0312,-0.068,-0.013,0.01,66.0,61.0,66.0,12.6,1504.6,245.3,-2.2,1.2,1990.865,13.27,0.069,259.2
09,2021-11-17T21:00:00,2000.0,42.79,6.0312,-0.064,-0.011,-0.006,64.0,60.0,62.0,12.6,1504.6,240.6,-2.2,1.3,1990.887,13.27,0.064,260.2
